Starlink 6160

operational
NORAD ID: 56382 Int'l Des: 2023-061 Owner: SPXS Country: US Constellation: starlink
LEOCIRCULAR

Über Starlink 6160

Beschreibung wird geladen...

Live-Position

3D-Globus wird geladen...

Nächste Überflüge

Höhenverlauf

Altitude vs Time

uPlot chart will show altitude changes over time

Zweizeiliger Elementsatz

1 56382U 23061J 25259.16942520 -.00000173 00000-0 22612-5 0 9998
2 56382 43.0027 65.6367 0001098 270.6494 89.4223 15.02533615130503
Epoch: 16. Sept. 2025 • Age: 14 hours

Aktueller Status

Höhe 559.1 km
Geschwindigkeit 7.58 km/s
Subsatellitenpunkt -1.18°S, 16.62°W
Startdatum 4. Mai 2023
Alter 2.3 years
Typ internet

Technische Details

Klassifizierung Payload
Masse 305.00 kg
Trockenmasse 290.00 kg
Gesamtmasse 305.00 kg
Länge 0.20 m
Durchmesser 2.80 m
Spannweite 9.00 m
Form Box + pan
Hersteller SPXS
Bus-Typ Starlink
Phasenstatus In Orbit
Besitzer/Staat SPXS/US

Große Konstellationen

Loading constellations...